Time,TemperatureF,DewpointF,PressureIn,WindDirection,WindDirectionDegrees,WindSpeedMPH,WindSpeedGustMPH,Humidity,HourlyPrecipIn,Conditions,Clouds,dailyrainin,SolarRadiationWatts/m^2,SoftwareType,DateUTC
2013-08-26 00:00:00,77.2,70.9,30.15,SSE,147,0.0,0.0,81,0.00,,,0.00,0,Wunderground v.1.15,2013-08-26 05:00:00,
2013-08-26 00:10:00,77.2,70.9,30.15,SSE,147,0.0,0.0,81,0.00,,,0.00,0,Wunderground v.1.15,2013-08-26 05:10:00,
2013-08-26 00:15:00,77.4,70.7,30.15,SSE,147,0.0,0.0,80,0.00,,,0.00,0,Wunderground v.1.15,2013-08-26 05:15:00,
2013-08-26 00:25:00,77.0,70.7,30.15,SSE,147,0.0,4.0,81,0.00,,,0.00,0,Wunderground v.1.15,2013-08-26 05:25:00,
2013-08-26 00:30:00,76.9,70.3,30.15,SSE,147,0.0,3.0,80,0.00,,,0.00,0,Wunderground v.1.15,2013-08-26 05:30:00,
2013-08-26 00:40:00,76.8,70.2,30.15,SSE,147,0.0,0.0,80,0.00,,,0.00,0,Wunderground v.1.15,2013-08-26 05:40:00,
2013-08-26 00:45:00,76.7,70.4,30.15,SSE,147,0.0,0.0,81,0.00,,,0.00,0,Wunderground v.1.15,2013-08-26 05:45:00,
2013-08-26 00:55:00,76.7,70.1,30.15,SSE,147,0.0,0.0,80,0.00,,,0.00,0,Wunderground v.1.15,2013-08-26 05:55:00,
2013-08-26 01:05:00,76.6,70.3,30.15,SSE,147,0.0,0.0,81,0.00,,,0.00,0,Wunderground v.1.15,2013-08-26 06:05:00,
2013-08-26 01:10:00,76.6,70.3,30.15,SSE,147,0.0,0.0,81,0.00,,,0.00,0,Wunderground v.1.15,2013-08-26 06:10:00,
2013-08-26 01:15:00,76.6,70.3,30.15,SSE,147,0.0,0.0,81,0.00,,,0.00,0,Wunderground v.1.15,2013-08-26 06:15:00,
2013-08-26 01:25:00,75.9,69.6,30.15,SSE,150,0.0,5.0,81,0.00,,,0.00,0,Wunderground v.1.15,2013-08-26 06:25:00,
2013-08-26 01:30:00,75.8,69.9,30.14,SSE,151,0.0,0.0,82,0.00,,,0.00,0,Wunderground v.1.15,2013-08-26 06:30:00,
2013-08-26 01:40:00,75.5,69.6,30.14,SSE,153,0.0,0.0,82,0.00,,,0.00,0,Wunderground v.1.15,2013-08-26 06:40:00,
2013-08-26 01:45:00,75.4,69.9,30.14,SSE,153,0.0,5.0,83,0.00,,,0.00,0,Wunderground v.1.15,2013-08-26 06:45:00,
2013-08-26 01:50:00,75.3,69.8,30.14,SSE,152,0.0,0.0,83,0.00,,,0.00,0,Wunderground v.1.15,2013-08-26 06:50:00,
2013-08-26 02:00:00,75.3,69.8,30.14,SSE,154,0.0,0.0,83,0.00,,,0.00,0,Wunderground v.1.15,2013-08-26 07:00:00,
2013-08-26 02:10:00,75.1,69.6,30.14,SSE,158,0.0,0.0,83,0.00,,,0.00,0,Wunderground v.1.15,2013-08-26 07:10:00,
2013-08-26 02:15:00,74.9,69.4,30.13,SSE,157,0.0,0.0,83,0.00,,,0.00,0,Wunderground v.1.15,2013-08-26 07:15:00,
2013-08-26 02:25:00,74.9,69.4,30.13,SSE,159,0.0,6.0,83,0.00,,,0.00,0,Wunderground v.1.15,2013-08-26 07:25:00,
2013-08-26 02:30:00,75.0,69.5,30.13,SSE,159,0.0,0.0,83,0.00,,,0.00,0,Wunderground v.1.15,2013-08-26 07:30:00,
2013-08-26 02:35:00,75.0,69.5,30.13,SSE,159,0.0,0.0,83,0.00,,,0.00,0,Wunderground v.1.15,2013-08-26 07:35:00,
2013-08-26 02:45:00,74.9,69.4,30.14,SSE,159,0.0,0.0,83,0.00,,,0.00,0,Wunderground v.1.15,2013-08-26 07:45:00,
2013-08-26 02:50:00,74.8,69.3,30.14,SSE,159,0.0,0.0,83,0.00,,,0.00,0,Wunderground v.1.15,2013-08-26 07:50:00,
2013-08-26 02:55:00,74.8,69.3,30.13,SSE,159,0.0,0.0,83,0.00,,,0.00,0,Wunderground v.1.15,2013-08-26 07:55:00,
2013-08-26 03:00:00,74.7,69.2,30.13,SSE,159,0.0,0.0,83,0.00,,,0.00,0,Wunderground v.1.15,2013-08-26 08:00:00,
2013-08-26 03:10:00,74.4,69.2,30.13,SSE,159,0.0,0.0,84,0.00,,,0.00,0,Wunderground v.1.15,2013-08-26 08:10:00,
2013-08-26 03:15:00,74.4,69.2,30.14,SSE,159,0.0,0.0,84,0.00,,,0.00,0,Wunderground v.1.15,2013-08-26 08:15:00,
2013-08-26 03:25:00,74.4,69.2,30.13,SSE,167,0.0,4.0,84,0.00,,,0.00,0,Wunderground v.1.15,2013-08-26 08:25:00,
2013-08-26 03:35:00,74.7,69.5,30.13,South,178,1.0,1.0,84,0.00,,,0.00,0,Wunderground v.1.15,2013-08-26 08:35:00,
2013-08-26 03:45:00,74.8,69.6,30.13,South,183,1.0,7.0,84,0.00,,,0.00,0,Wunderground v.1.15,2013-08-26 08:45:00,
2013-08-26 03:55:00,74.6,69.4,30.13,South,186,0.0,1.0,84,0.00,,,0.00,0,Wunderground v.1.15,2013-08-26 08:55:00,
2013-08-26 04:00:00,74.6,69.4,30.13,South,186,0.0,0.0,84,0.00,,,0.00,0,Wunderground v.1.15,2013-08-26 09:00:00,
2013-08-26 04:05:00,74.4,69.2,30.12,South,185,0.0,0.0,84,0.00,,,0.00,0,Wunderground v.1.15,2013-08-26 09:05:00,
2013-08-26 04:15:00,74.3,69.5,30.12,South,180,0.0,0.0,85,0.00,,,0.00,0,Wunderground v.1.15,2013-08-26 09:15:00,
2013-08-26 04:20:00,74.1,69.3,30.12,South,181,0.0,0.0,85,0.00,,,0.00,0,Wunderground v.1.15,2013-08-26 09:20:00,
2013-08-26 04:25:00,74.0,69.2,30.13,SSW,192,0.0,4.0,85,0.00,,,0.00,0,Wunderground v.1.15,2013-08-26 09:25:00,
2013-08-26 04:35:00,74.6,69.8,30.13,SSW,192,0.0,0.0,85,0.00,,,0.00,0,Wunderground v.1.15,2013-08-26 09:35:00,
2013-08-26 04:40:00,75.0,69.8,30.13,SSW,192,0.0,0.0,84,0.00,,,0.00,0,Wunderground v.1.15,2013-08-26 09:40:00,
2013-08-26 04:50:00,75.2,70.0,30.13,SSW,192,0.0,0.0,84,0.00,,,0.00,0,Wunderground v.1.15,2013-08-26 09:50:00,
2013-08-26 04:55:00,75.3,69.8,30.13,SSW,193,0.0,0.0,83,0.00,,,0.00,0,Wunderground v.1.15,2013-08-26 09:55:00,
2013-08-26 05:00:00,75.3,70.1,30.13,SSW,193,0.0,0.0,84,0.00,,,0.00,0,Wunderground v.1.15,2013-08-26 10:00:00,
2013-08-26 05:10:00,74.8,69.6,30.13,SSW,192,0.0,0.0,84,0.00,,,0.00,0,Wunderground v.1.15,2013-08-26 10:10:00,
2013-08-26 05:15:00,74.3,69.1,30.13,SSW,192,0.0,0.0,84,0.00,,,0.00,0,Wunderground v.1.15,2013-08-26 10:15:00,
2013-08-26 05:20:00,73.9,69.1,30.13,SSW,192,0.0,0.0,85,0.00,,,0.00,0,Wunderground v.1.15,2013-08-26 10:20:00,
2013-08-26 05:30:00,73.4,69.0,30.13,SSW,192,0.0,0.0,86,0.00,,,0.00,0,Wunderground v.1.15,2013-08-26 10:30:00,
2013-08-26 05:35:00,73.4,69.3,30.13,SSW,192,0.0,0.0,87,0.00,,,0.00,0,Wunderground v.1.15,2013-08-26 10:35:00,
2013-08-26 05:45:00,73.2,69.1,30.13,SSW,192,0.0,0.0,87,0.00,,,0.00,0,Wunderground v.1.15,2013-08-26 10:45:00,
2013-08-26 05:50:00,73.1,69.0,30.13,SSW,192,0.0,0.0,87,0.00,,,0.00,0,Wunderground v.1.15,2013-08-26 10:50:00,
2013-08-26 05:55:00,73.2,69.1,30.14,SSW,192,0.0,0.0,87,0.00,,,0.00,0,Wunderground v.1.15,2013-08-26 10:55:00,
2013-08-26 06:05:00,73.1,69.3,30.14,SSW,192,0.0,0.0,88,0.00,,,0.00,0,Wunderground v.1.15,2013-08-26 11:05:00,
2013-08-26 06:10:00,73.5,69.7,30.13,SSW,192,0.0,0.0,88,0.00,,,0.00,0,Wunderground v.1.15,2013-08-26 11:10:00,
2013-08-26 06:15:00,73.6,69.5,30.14,SSW,192,0.0,0.0,87,0.00,,,0.00,0,Wunderground v.1.15,2013-08-26 11:15:00,
2013-08-26 06:20:00,73.8,69.7,30.14,SSW,192,0.0,0.0,87,0.00,,,0.00,0,Wunderground v.1.15,2013-08-26 11:20:00,
2013-08-26 06:30:00,73.3,69.2,30.14,SSW,192,0.0,0.0,87,0.00,,,0.00,0,Wunderground v.1.15,2013-08-26 11:30:00,
2013-08-26 06:35:00,73.1,69.0,30.14,SSW,192,0.0,0.0,87,0.00,,,0.00,0,Wunderground v.1.15,2013-08-26 11:35:00,
2013-08-26 06:40:00,73.0,69.2,30.14,SSW,192,0.0,0.0,88,0.00,,,0.00,5,Wunderground v.1.15,2013-08-26 11:40:00,
2013-08-26 06:50:00,73.0,69.2,30.14,SSW,192,0.0,0.0,88,0.00,,,0.00,9,Wunderground v.1.15,2013-08-26 11:50:00,
2013-08-26 06:55:00,73.1,69.3,30.15,SSW,192,0.0,0.0,88,0.00,,,0.00,14,Wunderground v.1.15,2013-08-26 11:55:00,
2013-08-26 07:00:00,73.3,69.5,30.15,SSW,192,0.0,0.0,88,0.00,,,0.00,19,Wunderground v.1.15,2013-08-26 12:00:00,
2013-08-26 07:10:00,73.7,69.6,30.15,SSW,192,0.0,0.0,87,0.00,,,0.00,33,Wunderground v.1.15,2013-08-26 12:10:00,
2013-08-26 07:20:00,73.9,69.8,30.15,SSW,192,0.0,0.0,87,0.00,,,0.00,54,Wunderground v.1.15,2013-08-26 12:20:00,
2013-08-26 07:25:00,74.0,69.9,30.15,SSW,192,0.0,0.0,87,0.00,,,0.00,65,Wunderground v.1.15,2013-08-26 12:25:00,
2013-08-26 07:35:00,74.0,69.9,30.15,SSW,192,0.0,3.0,87,0.00,,,0.00,97,Wunderground v.1.15,2013-08-26 12:35:00,
2013-08-26 07:40:00,73.9,69.8,30.16,SSW,192,0.0,0.0,87,0.00,,,0.00,109,Wunderground v.1.15,2013-08-26 12:40:00,
2013-08-26 07:50:00,74.0,69.9,30.16,SSW,192,0.0,1.0,87,0.00,,,0.00,142,Wunderground v.1.15,2013-08-26 12:50:00,
2013-08-26 07:55:00,74.0,69.9,30.16,SSW,192,0.0,1.0,87,0.00,,,0.00,162,Wunderground v.1.15,2013-08-26 12:55:00,
2013-08-26 08:00:00,74.2,70.1,30.16,South,190,0.0,0.0,87,0.00,,,0.00,181,Wunderground v.1.15,2013-08-26 13:00:00,
2013-08-26 08:10:00,74.9,70.8,30.16,South,176,1.0,6.0,87,0.00,,,0.00,213,Wunderground v.1.15,2013-08-26 13:10:00,
2013-08-26 08:15:00,75.4,70.9,30.16,South,182,1.0,7.0,86,0.00,,,0.00,236,Wunderground v.1.15,2013-08-26 13:15:00,
2013-08-26 08:25:00,75.9,71.1,30.16,SSW,198,1.0,10.0,85,0.00,,,0.00,265,Wunderground v.1.15,2013-08-26 13:25:00,
2013-08-26 08:30:00,76.3,71.5,30.16,SSW,208,1.0,1.0,85,0.00,,,0.00,281,Wunderground v.1.15,2013-08-26 13:30:00,
2013-08-26 08:40:00,77.3,71.7,30.16,SW,234,1.0,1.0,83,0.00,,,0.00,315,Wunderground v.1.15,2013-08-26 13:40:00,
2013-08-26 08:45:00,77.6,72.0,30.16,SW,214,1.0,7.0,83,0.00,,,0.00,332,Wunderground v.1.15,2013-08-26 13:45:00,
2013-08-26 08:55:00,78.5,72.2,30.16,SW,225,3.0,10.0,81,0.00,,,0.00,362,Wunderground v.1.15,2013-08-26 13:55:00,
2013-08-26 09:05:00,78.9,72.2,30.16,SW,236,4.0,12.0,80,0.00,,,0.00,396,Wunderground v.1.15,2013-08-26 14:05:00,
2013-08-26 09:10:00,79.1,72.4,30.16,WSW,237,6.0,13.0,80,0.00,,,0.00,411,Wunderground v.1.15,2013-08-26 14:10:00,
2013-08-26 09:20:00,79.9,72.4,30.16,SW,232,3.0,3.0,78,0.00,,,0.00,441,Wunderground v.1.15,2013-08-26 14:20:00,
2013-08-26 09:30:00,80.5,72.6,30.16,SW,227,4.0,12.0,77,0.00,,,0.00,468,Wunderground v.1.15,2013-08-26 14:30:00,
2013-08-26 09:40:00,80.5,72.6,30.16,WSW,242,6.0,6.0,77,0.00,,,0.00,482,Wunderground v.1.15,2013-08-26 14:40:00,
2013-08-26 09:45:00,81.0,73.1,30.16,SW,236,5.0,13.0,77,0.00,,,0.00,441,Wunderground v.1.15,2013-08-26 14:45:00,
2013-08-26 09:55:00,81.6,72.9,30.16,SW,235,5.0,16.0,75,0.00,,,0.00,241,Wunderground v.1.15,2013-08-26 14:55:00,
2013-08-26 10:05:00,82.7,73.2,30.16,WSW,242,4.0,12.0,73,0.00,,,0.00,69,Wunderground v.1.15,2013-08-26 15:05:00,
2013-08-26 10:10:00,82.9,72.9,30.16,SW,227,6.0,6.0,72,0.00,,,0.00,67,Wunderground v.1.15,2013-08-26 15:10:00,
2013-08-26 10:20:00,83.5,73.1,30.16,SW,236,7.0,17.0,71,0.00,,,0.00,67,Wunderground v.1.15,2013-08-26 15:20:00,
2013-08-26 10:25:00,83.7,72.9,30.17,West,265,8.0,17.0,70,0.00,,,0.00,69,Wunderground v.1.15,2013-08-26 15:25:00,
2013-08-26 10:30:00,84.4,73.1,30.16,SW,223,6.0,15.0,69,0.00,,,0.00,69,Wunderground v.1.15,2013-08-26 15:30:00,
2013-08-26 10:35:00,84.7,72.5,30.16,SW,232,7.0,15.0,67,0.00,,,0.00,69,Wunderground v.1.15,2013-08-26 15:35:00,
2013-08-26 10:45:00,84.9,72.7,30.15,WSW,243,7.0,17.0,67,0.00,,,0.00,70,Wunderground v.1.15,2013-08-26 15:45:00,
2013-08-26 10:55:00,85.6,72.5,30.15,SSW,206,7.0,17.0,65,0.00,,,0.00,72,Wunderground v.1.15,2013-08-26 15:55:00,
2013-08-26 11:00:00,85.4,72.7,30.15,West,267,8.0,8.0,66,0.00,,,0.00,72,Wunderground v.1.15,2013-08-26 16:00:00,
2013-08-26 11:10:00,86.3,72.7,30.15,SW,224,6.0,15.0,64,0.00,,,0.00,72,Wunderground v.1.15,2013-08-26 16:10:00,
2013-08-26 11:20:00,86.3,72.7,30.15,WSW,237,8.0,8.0,64,0.00,,,0.00,70,Wunderground v.1.15,2013-08-26 16:20:00,
2013-08-26 11:25:00,86.6,73.0,30.15,West,260,8.0,9.0,64,0.00,,,0.00,70,Wunderground v.1.15,2013-08-26 16:25:00,
2013-08-26 11:30:00,87.2,73.5,30.14,WSW,252,6.0,6.0,64,0.00,,,0.00,72,Wunderground v.1.15,2013-08-26 16:30:00,
2013-08-26 11:35:00,87.5,72.9,30.15,WSW,249,6.0,14.0,62,0.00,,,0.00,72,Wunderground v.1.15,2013-08-26 16:35:00,
2013-08-26 11:45:00,87.6,73.4,30.14,SW,224,7.0,14.0,63,0.00,,,0.00,72,Wunderground v.1.15,2013-08-26 16:45:00,
2013-08-26 11:50:00,88.0,72.9,30.14,SSW,200,7.0,7.0,61,0.00,,,0.00,81,Wunderground v.1.15,2013-08-26 16:50:00,
2013-08-26 12:00:00,88.3,73.6,30.14,SW,236,7.0,16.0,62,0.00,,,0.00,656,Wunderground v.1.15,2013-08-26 17:00:00,
2013-08-26 12:10:00,88.4,73.2,30.14,SW,234,6.0,14.0,61,0.00,,,0.00,800,Wunderground v.1.15,2013-08-26 17:10:00,
2013-08-26 12:15:00,88.9,73.2,30.14,WSW,239,5.0,14.0,60,0.00,,,0.00,805,Wunderground v.1.15,2013-08-26 17:15:00,
2013-08-26 12:20:00,88.1,73.0,30.14,WSW,238,7.0,17.0,61,0.00,,,0.00,814,Wunderground v.1.15,2013-08-26 17:20:00,
2013-08-26 12:25:00,88.3,73.6,30.13,SW,221,8.0,18.0,62,0.00,,,0.00,819,Wunderground v.1.15,2013-08-26 17:25:00,
2013-08-26 12:35:00,89.2,74.0,30.13,WSW,240,5.0,14.0,61,0.00,,,0.00,830,Wunderground v.1.15,2013-08-26 17:35:00,
2013-08-26 12:45:00,89.2,74.0,30.13,WSW,243,7.0,13.0,61,0.00,,,0.00,833,Wunderground v.1.15,2013-08-26 17:45:00,
2013-08-26 12:50:00,89.8,73.6,30.13,West,279,6.0,6.0,59,0.00,,,0.00,833,Wunderground v.1.15,2013-08-26 17:50:00,
2013-08-26 13:00:00,90.3,74.5,30.12,SW,221,6.0,13.0,60,0.00,,,0.00,838,Wunderground v.1.15,2013-08-26 18:00:00,
2013-08-26 13:05:00,89.6,72.9,30.12,SW,221,7.0,15.0,58,0.00,,,0.00,842,Wunderground v.1.15,2013-08-26 18:05:00,
2013-08-26 13:10:00,90.0,73.7,30.12,West,265,7.0,7.0,59,0.00,,,0.00,840,Wunderground v.1.15,2013-08-26 18:10:00,
2013-08-26 13:20:00,90.4,73.6,30.11,SW,217,4.0,12.0,58,0.00,,,0.00,838,Wunderground v.1.15,2013-08-26 18:20:00,
2013-08-26 13:25:00,90.8,74.0,30.11,SW,233,5.0,12.0,58,0.00,,,0.00,842,Wunderground v.1.15,2013-08-26 18:25:00,
2013-08-26 13:35:00,91.4,73.5,30.11,SW,236,6.0,16.0,56,0.00,,,0.00,838,Wunderground v.1.15,2013-08-26 18:35:00,
2013-08-26 13:40:00,91.1,73.2,30.11,WSW,256,7.0,18.0,56,0.00,,,0.00,838,Wunderground v.1.15,2013-08-26 18:40:00,
2013-08-26 13:45:00,91.0,73.1,30.10,SW,232,8.0,18.0,56,0.00,,,0.00,833,Wunderground v.1.15,2013-08-26 18:45:00,
2013-08-26 13:55:00,91.2,74.4,30.10,SW,225,5.0,11.0,58,0.00,,,0.00,831,Wunderground v.1.15,2013-08-26 18:55:00,
2013-08-26 14:00:00,91.5,73.6,30.10,West,277,4.0,13.0,56,0.00,,,0.00,816,Wunderground v.1.15,2013-08-26 19:00:00,
2013-08-26 14:10:00,91.3,73.9,30.10,South,182,4.0,10.0,57,0.00,,,0.00,830,Wunderground v.1.15,2013-08-26 19:10:00,
2013-08-26 14:15:00,91.9,74.5,30.09,WSW,246,5.0,13.0,57,0.00,,,0.00,828,Wunderground v.1.15,2013-08-26 19:15:00,
2013-08-26 14:25:00,91.8,73.9,30.09,WSW,240,7.0,7.0,56,0.00,,,0.00,819,Wunderground v.1.15,2013-08-26 19:25:00,
2013-08-26 14:35:00,91.7,72.7,30.09,SW,236,6.0,15.0,54,0.00,,,0.00,779,Wunderground v.1.15,2013-08-26 19:35:00,
2013-08-26 14:40:00,92.1,73.1,30.09,SW,230,5.0,5.0,54,0.00,,,0.00,828,Wunderground v.1.15,2013-08-26 19:40:00,
2013-08-26 14:45:00,92.6,73.0,30.08,WSW,240,4.0,15.0,53,0.00,,,0.00,833,Wunderground v.1.15,2013-08-26 19:45:00,
2013-08-26 14:50:00,93.2,73.5,30.08,WSW,242,3.0,3.0,53,0.00,,,0.00,264,Wunderground v.1.15,2013-08-26 19:50:00,
2013-08-26 15:00:00,92.2,72.6,30.08,WSW,252,5.0,13.0,53,0.00,,,0.00,809,Wunderground v.1.15,2013-08-26 20:00:00,
2013-08-26 15:05:00,92.2,72.6,30.08,WSW,242,7.0,16.0,53,0.00,,,0.00,784,Wunderground v.1.15,2013-08-26 20:05:00,
2013-08-26 15:15:00,92.8,72.6,30.07,West,267,5.0,16.0,52,0.00,,,0.00,257,Wunderground v.1.15,2013-08-26 20:15:00,
2013-08-26 15:20:00,92.7,73.1,30.07,WSW,238,6.0,6.0,53,0.00,,,0.00,810,Wunderground v.1.15,2013-08-26 20:20:00,
2013-08-26 15:30:00,93.2,73.0,30.07,WSW,249,5.0,14.0,52,0.00,,,0.00,137,Wunderground v.1.15,2013-08-26 20:30:00,
2013-08-26 15:40:00,92.8,73.2,30.07,WSW,239,7.0,7.0,53,0.00,,,0.00,712,Wunderground v.1.15,2013-08-26 20:40:00,
2013-08-26 15:45:00,93.1,72.9,30.06,SW,230,6.0,15.0,52,0.00,,,0.00,694,Wunderground v.1.15,2013-08-26 20:45:00,
2013-08-26 15:55:00,93.6,72.7,30.06,WSW,257,4.0,11.0,51,0.00,,,0.00,677,Wunderground v.1.15,2013-08-26 20:55:00,
2013-08-26 16:00:00,93.3,73.0,30.06,SW,228,6.0,15.0,52,0.00,,,0.00,663,Wunderground v.1.15,2013-08-26 21:00:00,
2013-08-26 16:10:00,92.5,72.3,30.06,SW,215,8.0,15.0,52,0.00,,,0.00,659,Wunderground v.1.15,2013-08-26 21:10:00,
2013-08-26 16:15:00,92.7,72.5,30.06,SW,233,8.0,16.0,52,0.00,,,0.00,113,Wunderground v.1.15,2013-08-26 21:15:00,
2013-08-26 16:20:00,92.8,72.6,30.06,WSW,242,6.0,6.0,52,0.00,,,0.00,137,Wunderground v.1.15,2013-08-26 21:20:00,
2013-08-26 16:25:00,93.3,73.0,30.06,WSW,244,2.0,6.0,52,0.00,,,0.00,144,Wunderground v.1.15,2013-08-26 21:25:00,
2013-08-26 16:35:00,93.1,72.3,30.06,SW,225,5.0,15.0,51,0.00,,,0.00,575,Wunderground v.1.15,2013-08-26 21:35:00,
2013-08-26 16:45:00,93.0,72.8,30.05,SW,228,6.0,11.0,52,0.00,,,0.00,148,Wunderground v.1.15,2013-08-26 21:45:00,
2013-08-26 16:55:00,93.1,72.9,30.06,SW,219,3.0,5.0,52,0.00,,,0.00,548,Wunderground v.1.15,2013-08-26 21:55:00,
2013-08-26 17:00:00,93.0,73.9,30.05,SW,229,3.0,11.0,54,0.00,,,0.00,165,Wunderground v.1.15,2013-08-26 22:00:00,
2013-08-26 17:05:00,92.3,73.8,30.05,South,169,6.0,13.0,55,0.00,,,0.00,482,Wunderground v.1.15,2013-08-26 22:05:00,
2013-08-26 17:10:00,92.9,73.8,30.05,South,191,5.0,5.0,54,0.00,,,0.00,464,Wunderground v.1.15,2013-08-26 22:10:00,
2013-08-26 17:20:00,92.8,73.7,30.05,WSW,241,5.0,12.0,54,0.00,,,0.00,413,Wunderground v.1.15,2013-08-26 22:20:00,
2013-08-26 17:25:00,92.9,73.2,30.06,SW,233,5.0,12.0,53,0.00,,,0.00,436,Wunderground v.1.15,2013-08-26 22:25:00,
2013-08-26 17:35:00,92.8,73.7,30.05,SW,231,4.0,4.0,54,0.00,,,0.00,396,Wunderground v.1.15,2013-08-26 22:35:00,
2013-08-26 17:40:00,92.7,73.6,30.05,SW,220,4.0,4.0,54,0.00,,,0.00,359,Wunderground v.1.15,2013-08-26 22:40:00,
2013-08-26 17:45:00,92.8,73.7,30.05,SW,218,4.0,5.0,54,0.00,,,0.00,334,Wunderground v.1.15,2013-08-26 22:45:00,
2013-08-26 17:55:00,92.6,73.5,30.05,SW,235,3.0,6.0,54,0.00,,,0.00,309,Wunderground v.1.15,2013-08-26 22:55:00,
2013-08-26 18:00:00,92.4,73.3,30.05,WSW,244,3.0,3.0,54,0.00,,,0.00,308,Wunderground v.1.15,2013-08-26 23:00:00,
2013-08-26 18:10:00,92.7,74.2,30.05,South,190,2.0,10.0,55,0.00,,,0.00,260,Wunderground v.1.15,2013-08-26 23:10:00,
2013-08-26 18:15:00,92.1,74.1,30.05,SW,226,3.0,10.0,56,0.00,,,0.00,241,Wunderground v.1.15,2013-08-26 23:15:00,
2013-08-26 18:20:00,91.9,74.0,30.05,SW,230,4.0,9.0,56,0.00,,,0.00,220,Wunderground v.1.15,2013-08-26 23:20:00,
2013-08-26 18:30:00,90.8,74.0,30.05,WNW,294,4.0,4.0,58,0.00,,,0.00,190,Wunderground v.1.15,2013-08-26 23:30:00,
2013-08-26 18:35:00,91.5,74.1,30.05,SSW,211,3.0,5.0,57,0.00,,,0.00,171,Wunderground v.1.15,2013-08-26 23:35:00,
2013-08-26 18:45:00,90.9,74.1,30.05,SW,222,2.0,7.0,58,0.00,,,0.00,134,Wunderground v.1.15,2013-08-26 23:45:00,
2013-08-26 18:50:00,90.9,74.1,30.04,South,176,2.0,2.0,58,0.00,,,0.00,118,Wunderground v.1.15,2013-08-26 23:50:00,
2013-08-26 19:00:00,90.3,74.0,30.04,SW,229,3.0,3.0,59,0.00,,,0.00,88,Wunderground v.1.15,2013-08-27 00:00:00,
2013-08-26 19:10:00,89.5,74.3,30.04,SSW,207,1.0,1.0,61,0.00,,,0.00,60,Wunderground v.1.15,2013-08-27 00:10:00,
2013-08-26 19:15:00,89.4,74.2,30.04,SW,217,1.0,3.0,61,0.00,,,0.00,47,Wunderground v.1.15,2013-08-27 00:15:00,
2013-08-26 19:25:00,88.6,74.4,30.04,SSW,212,0.0,3.0,63,0.00,,,0.00,28,Wunderground v.1.15,2013-08-27 00:25:00,
2013-08-26 19:30:00,89.0,74.3,30.04,SSW,209,0.0,9.0,62,0.00,,,0.00,21,Wunderground v.1.15,2013-08-27 00:30:00,
2013-08-26 19:35:00,88.3,74.1,30.05,SSW,213,0.0,9.0,63,0.00,,,0.00,16,Wunderground v.1.15,2013-08-27 00:35:00,
2013-08-26 19:45:00,88.1,74.4,30.05,SSW,212,0.0,0.0,64,0.00,,,0.00,9,Wunderground v.1.15,2013-08-27 00:45:00,
2013-08-26 19:50:00,87.7,74.0,30.05,WSW,239,0.0,6.0,64,0.00,,,0.00,5,Wunderground v.1.15,2013-08-27 00:50:00,
2013-08-26 19:55:00,87.6,73.9,30.05,South,178,0.0,6.0,64,0.00,,,0.00,0,Wunderground v.1.15,2013-08-27 00:55:00,
2013-08-26 20:05:00,87.2,74.0,30.04,South,172,0.0,1.0,65,0.00,,,0.00,0,Wunderground v.1.15,2013-08-27 01:05:00,
2013-08-26 20:10:00,86.8,74.1,30.04,South,173,0.0,4.0,66,0.00,,,0.00,0,Wunderground v.1.15,2013-08-27 01:10:00,
2013-08-26 20:15:00,86.3,74.0,30.05,South,171,0.0,4.0,67,0.00,,,0.00,0,Wunderground v.1.15,2013-08-27 01:15:00,
2013-08-26 20:25:00,85.6,74.3,30.05,SSE,167,0.0,0.0,69,0.00,,,0.00,0,Wunderground v.1.15,2013-08-27 01:25:00,
2013-08-26 20:30:00,85.3,74.0,30.04,South,173,1.0,1.0,69,0.00,,,0.00,0,Wunderground v.1.15,2013-08-27 01:30:00,
2013-08-26 20:40:00,84.9,73.6,30.05,South,175,1.0,1.0,69,0.00,,,0.00,0,Wunderground v.1.15,2013-08-27 01:40:00,
2013-08-26 20:45:00,84.7,73.4,30.05,South,175,0.0,1.0,69,0.00,,,0.00,0,Wunderground v.1.15,2013-08-27 01:45:00,
2013-08-26 20:50:00,84.5,73.6,30.05,South,175,0.0,5.0,70,0.00,,,0.00,0,Wunderground v.1.15,2013-08-27 01:50:00,
2013-08-26 21:00:00,84.1,73.3,30.05,South,173,0.0,7.0,70,0.00,,,0.00,0,Wunderground v.1.15,2013-08-27 02:00:00,
2013-08-26 21:10:00,83.7,73.3,30.05,South,173,0.0,0.0,71,0.00,,,0.00,0,Wunderground v.1.15,2013-08-27 02:10:00,
2013-08-26 21:15:00,83.6,73.2,30.05,South,178,0.0,0.0,71,0.00,,,0.00,0,Wunderground v.1.15,2013-08-27 02:15:00,
2013-08-26 21:20:00,83.4,73.0,30.05,South,176,0.0,0.0,71,0.00,,,0.00,0,Wunderground v.1.15,2013-08-27 02:20:00,
2013-08-26 21:30:00,83.9,73.5,30.05,South,180,0.0,0.0,71,0.00,,,0.00,0,Wunderground v.1.15,2013-08-27 02:30:00,
2013-08-26 21:35:00,84.3,73.4,30.05,South,184,0.0,0.0,70,0.00,,,0.00,0,Wunderground v.1.15,2013-08-27 02:35:00,
2013-08-26 21:45:00,84.3,73.4,30.04,South,184,0.0,0.0,70,0.00,,,0.00,0,Wunderground v.1.15,2013-08-27 02:45:00,
2013-08-26 21:55:00,83.3,72.9,30.04,SSW,210,0.0,6.0,71,0.00,,,0.00,0,Wunderground v.1.15,2013-08-27 02:55:00,
2013-08-26 22:00:00,82.9,72.9,30.04,SSW,210,0.0,6.0,72,0.00,,,0.00,0,Wunderground v.1.15,2013-08-27 03:00:00,
2013-08-26 22:05:00,82.5,73.0,30.04,SSW,198,1.0,6.0,73,0.00,,,0.00,0,Wunderground v.1.15,2013-08-27 03:05:00,
2013-08-26 22:15:00,82.0,72.9,30.04,SSW,202,1.0,3.0,74,0.00,,,0.00,0,Wunderground v.1.15,2013-08-27 03:15:00,
2013-08-26 22:20:00,81.9,73.2,30.04,SSW,202,0.0,0.0,75,0.00,,,0.00,0,Wunderground v.1.15,2013-08-27 03:20:00,
2013-08-26 22:25:00,82.4,72.9,30.04,SSW,204,0.0,0.0,73,0.00,,,0.00,0,Wunderground v.1.15,2013-08-27 03:25:00,
2013-08-26 22:35:00,81.6,72.9,30.04,SW,218,0.0,5.0,75,0.00,,,0.00,0,Wunderground v.1.15,2013-08-27 03:35:00,
2013-08-26 22:40:00,81.0,72.7,30.04,SW,218,0.0,1.0,76,0.00,,,0.00,0,Wunderground v.1.15,2013-08-27 03:40:00,
2013-08-26 22:45:00,80.6,72.7,30.04,SW,220,0.0,1.0,77,0.00,,,0.00,0,Wunderground v.1.15,2013-08-27 03:45:00,
2013-08-26 22:55:00,80.2,72.7,30.04,SW,220,0.0,0.0,78,0.00,,,0.00,0,Wunderground v.1.15,2013-08-27 03:55:00,
2013-08-26 23:00:00,80.3,72.4,30.04,SW,225,0.0,4.0,77,0.00,,,0.00,0,Wunderground v.1.15,2013-08-27 04:00:00,
2013-08-26 23:05:00,80.1,72.6,30.04,SW,225,0.0,5.0,78,0.00,,,0.00,0,Wunderground v.1.15,2013-08-27 04:05:00,
2013-08-26 23:10:00,79.9,72.4,30.04,SW,226,0.0,0.0,78,0.00,,,0.00,0,Wunderground v.1.15,2013-08-27 04:10:00,
2013-08-26 23:15:00,80.0,72.5,30.04,SW,226,0.0,0.0,78,0.00,,,0.00,0,Wunderground v.1.15,2013-08-27 04:15:00,
2013-08-26 23:25:00,79.4,72.3,30.04,SW,225,0.0,1.0,79,0.00,,,0.00,0,Wunderground v.1.15,2013-08-27 04:25:00,
2013-08-26 23:30:00,79.3,72.2,30.04,SW,221,0.0,7.0,79,0.00,,,0.00,0,Wunderground v.1.15,2013-08-27 04:30:00,
2013-08-26 23:35:00,79.1,72.0,30.04,SW,221,0.0,7.0,79,0.00,,,0.00,0,Wunderground v.1.15,2013-08-27 04:35:00,
2013-08-26 23:45:00,79.2,72.1,30.04,SW,222,0.0,6.0,79,0.00,,,0.00,0,Wunderground v.1.15,2013-08-27 04:45:00,
2013-08-26 23:55:00,79.2,72.1,30.04,SW,224,0.0,0.0,79,0.00,,,0.00,0,Wunderground v.1.15,2013-08-27 04:55:00,